Probability
0 0 0 0 0 0 0 0 0 0 0 0 0 0 0 0 0 0 0 0 0 0 0 0 0 0 0 0 0 0 0 0 0 0 0 0 0 0 0 0 0 0 0
0 0 0 0 0 0 0 0 0 0 0 0 0 0 0 0 0 0 0 0 0 0 1 1 1 0 0 0 0 0 0 0 0 0 0 0 0 0 0 0 0 0 0
0 0 0 0 0 0 0 0 0 0 0 0 0 0 0 0 0 0 0 0 0 0 2 4 4 3 2 1 1 0 0 0 0 0 0 0 0 0 0 0 0 0 0
0 0 0 0 0 0 0 0 0 0 0 0 0 0 0 0 0 0 0 0 0 0 3 8 10 8 5 2 1 0 0 0 0 0 0 0 0 0 0 0 0 0 0
0 0 0 0 0 0 0 0 0 0 0 0 0 0 0 0 0 0 0 0 0 0 2 6 10 10 6 3 1 0 0 0 0 0 0 0 0 0 0 0 0 0 0
0 0 0 0 0 0 0 0 0 0 0 0 0 0 0 0 0 0 0 0 0 0 0 2 4 5 5 3 1 0 0 0 0 0 0 0 0 0 0 0 0 0 0
0 0 0 0 0 0 0 0 0 0 0 0 0 0 0 0 0 0 0 0 0 0 0 0 0 1 2 1 1 1 1 0 0 0 0 0 0 0 0 0 0 0 0
1 1 1 1 1 1 1 1 1 1 1 0 0 0 0 0 0 0 0 0 0 0 0 0 0 0 0 0 0 1 1 0 0 0 0 0 0 0 0 0 0 0 0
2 1 1 0 1 2 2 2 1 1 2 1 0 0 0 0 0 0 0 0 0 0 0 0 0 0 0 0 0 0 0 0 0 0 0 0 0 0 0 0 0 0 0
1 1 0 0 1 2 2 1 1 1 2 1 0 0 0 0 0 0 0 0 0 0 0 0 0 0 0 0 0 0 0 0 0 0 0 0 0 0 0 0 0 0 0
4 2 0 1 1 1 1 0 0 0 1 1 0 0 0 0 0 0 0 0 0 0 0 0 0 0 0 0 0 0 0 0 0 0 0 0 0 0 0 0 0 0 0
9 4 1 0 0 0 0 0 0 0 0 0 0 0 0 0 0 0 0 0 0 0 0 0 0 0 0 0 0 0 0 0 0 0 0 0 0 0 0 0 0 0 0
11 6 1 0 0 0 0 0 0 0 0 0 0 0 0 0 0 0 0 0 0 0 0 0 0 0 0 0 0 0 0 0 0 0 0 0 0 0 0 0 0 0 0
7 4 1 0 0 0 0 0 0 0 0 0 0 0 0 0 0 0 0 0 0 0 0 0 0 0 0 0 0 0 0 0 0 0 0 0 0 0 0 0 0 0 0
2 1 0 0 0 0 0 0 0 0 0 0 0 0 0 0 0 0 0 0 0 0 0 1 1 0 0 0 0 0 0 0 0 0 0 0 0 0 0 0 0 0 0
0 0 0 0 0 0 0 0 0 0 0 0 0 0 0 0 0 0 0 0 0 0 0 1 1 0 0 0 0 0 0 0 0 0 0 0 0 0 0 0 0 0 0
0 0 0 0 0 0 0 0 0 0 0 0 0 0 0 0 0 0 0 0 0 0 0 1 1 0 0 0 0 0 0 0 0 0 0 0 0 0 0 0 0 0 0
0 0 0 0 0 0 0 0 0 0 0 0 0 0 0 0 0 0 0 0 0 0 0 0 0 0 0 0 0 0 0 0 0 0 0 0 0 0 0 0 0 0 0
0 0 0 0 0 0 0 0 0 0 0 0 0 0 0 0 0 0 0 0 0 0 0 0 0 0 0 0 0 0 0 0 0 0 0 0 0 0 0 0 0 0 0
0 0 0 0 0 0 0 0 0 0 0 0 0 0 0 0 0 0 0 0 0 0 0 0 0 0 0 0 0 0 0 0 0 0 0 0 0 0 0 0 0 0 0
0 0 0 0 0 0 0 0 0 0 0 0 0 0 0 0 0 0 0 0 0 0 0 0 0 0 0 0 0 0 0 0 0 0 0 0 0 0 0 0 0 0 0
0 0 0 0 0 0 0 0 0 0 0 0 0 0 0 0 0 0 0 0 0 0 0 0 0 0 0 0 0 0 0 0 1 1 0 0 0 0 0 0 0 0 0
0 0 0 0 0 0 0 0 0 0 0 0 0 0 0 0 0 0 0 0 0 0 0 0 0 0 0 0 0 0 0 0 1 1 1 0 0 0 1 0 0 0 0
0 0 0 0 0 0 0 0 0 1 1 0 0 0 0 0 0 0 0 0 0 0 0 0 0 0 0 0 0 0 0 0 1 1 1 1 0 0 1 1 0 0 0
0 0 0 0 0 0 0 0 0 1 1 0 0 0 0 0 0 0 0 0 0 0 0 0 0 0 0 0 0 0 0 0 0 0 0 0 0 0 0 1 0 0 0
0 0 0 0 0 0 0 0 0 1 1 0 0 0 0 0 0 0 0 0 0 0 0 0 0 0 0 0 0 0 0 0 0 0 0 0 0 0 0 1 0 0 0
Wind_Speed
6 6 5 4 5 4 6 4 4 4 4 3 1 1 3 3 2 2 2 4 6 5 4 4 4 4 4 4 4 5 6 6 7 7 7 7 6 6 5 4 4 3 2
5 5 6 5 5 5 5 4 4 3 3 3 2 2 2 2 3 2 3 3 4 5 4 2 3 4 4 4 4 5 5 6 7 7 7 7 6 6 5 5 4 3 2
6 6 5 6 6 6 7 4 4 3 3 3 4 2 1 1 2 3 3 2 3 5 4 2 1 2 2 3 4 5 5 5 5 6 6 5 5 5 5 5 4 3 2
8 6 5 5 6 6 5 5 4 4 4 4 3 3 2 1 2 2 1 1 2 3 6 6 3 2 3 4 5 5 5 5 4 4 4 3 3 3 4 4 4 3 2
9 7 5 5 7 6 6 6 5 5 4 4 3 3 3 2 1 2 2 1 3 2 4 6 7 6 4 3 4 4 4 4 4 3 3 2 2 2 3 3 4 4 4
9 6 5 7 7 6 6 6 6 5 4 4 5 4 4 4 4 3 2 2 2 2 2 3 4 7 7 5 3 3 3 3 3 3 2 2 2 2 2 2 3 3 4
9 8 6 8 7 7 9 9 7 8 6 6 5 5 6 7 5 4 4 4 3 2 3 3 1 2 5 6 5 2 2 3 3 3 2 1 1 1 1 1 2 3 4
10 9 10 8 8 7 9 9 8 6 6 6 6 5 5 6 6 6 5 5 5 4 3 2 3 2 2 3 7 5 4 3 3 3 3 3 2 1 0 0 0 1 1
8 8 8 8 8 8 8 9 9 10 7 8 8 6 5 4 3 6 8 6 5 4 5 4 3 3 2 2 5 7 4 3 2 3 4 4 4 4 3 2 2 2 3
7 7 7 7 7 6 7 8 9 8 8 7 7 7 8 5 4 3 5 6 6 6 6 4 5 4 4 3 2 4 3 2 1 3 5 5 5 5 5 4 3 3 3
4 5 6 6 6 5 6 7 7 8 7 7 7 6 7 5 8 6 4 4 4 6 6 6 5 5 4 4 3 5 3 1 0 2 3 4 4 3 3 3 3 2 2
2 5 5 5 5 5 6 6 6 8 7 8 7 7 6 6 7 7 6 4 4 4 5 5 6 5 5 5 6 7 5 4 3 3 2 3 3 2 2 2 2 3 3
3 5 5 5 4 4 4 5 6 6 7 8 8 7 7 7 6 6 6 5 4 4 4 5 6 6 6 6 6 10 9 8 6 5 4 3 3 2 1 1 2 3 4
3 5 6 5 5 5 4 5 5 6 6 7 8 8 6 7 7 7 6 6 5 5 6 6 4 6 6 7 6 11 9 12 9 8 7 5 4 3 2 1 1 3 4
4 6 7 6 6 5 5 5 4 5 5 6 6 7 7 6 7 7 7 7 6 6 5 5 4 4 4 4 5 8 10 13 13 11 9 8 7 6 5 4 3 3 4
6 7 7 7 6 6 5 5 5 4 5 5 5 7 7 6 6 7 7 7 7 7 5 3 3 3 2 3 5 8 8 12 13 12 11 11 9 8 7 7 6 6 5
7 7 7 7 7 7 6 5 5 5 5 6 6 7 7 7 6 6 6 6 7 7 7 5 3 4 5 6 4 6 7 8 9 15 14 13 12 11 10 9 9 8 8
6 7 7 7 6 6 6 6 6 6 6 5 5 6 7 6 7 6 6 7 7 7 7 8 5 5 7 6 6 6 5 6 7 12 15 14 13 12 12 11 11 10 10
5 6 7 7 7 7 7 7 7 7 6 6 6 6 6 6 7 6 7 7 6 6 7 7 6 4 4 4 5 5 6 6 7 7 12 13 14 13 13 13 12 12 11
4 5 7 7 8 8 8 8 8 7 7 7 6 5 6 6 6 6 6 6 6 6 6 6 6 5 4 3 4 5 5 5 6 6 8 9 11 15 16 15 15 14 13
3 4 5 6 7 7 7 8 8 8 8 8 7 6 5 3 4 4 4 4 4 4 4 4 5 4 4 4 4 3 4 4 5 6 6 7 8 10 12 16 18 17 15
3 2 2 3 4 3 4 4 8 9 9 9 8 6 5 7 7 7 5 4 4 3 3 3 3 4 4 4 4 3 3 3 4 3 5 6 6 8 8 9 11 15 17
6 5 5 3 3 5 6 5 8 9 9 9 8 7 4 4 5 6 8 8 7 5 4 4 3 3 2 2 3 4 4 3 3 0 2 5 5 7 7 6 7 10 12
7 7 7 7 6 8 10 7 5 10 8 8 7 7 7 7 6 4 5 6 5 5 5 6 3 2 1 1 1 2 2 2 3 1 2 3 3 4 5 5 7 9 10
7 6 7 7 6 8 12 11 9 3 3 5 5 6 6 6 6 2 6 5 4 3 4 4 4 3 2 1 2 2 2 2 2 2 2 2 2 2 3 4 0 4 7
6 5 6 6 7 7 12 13 11 2 1 1 2 3 1 2 2 3 7 5 5 2 2 5 5 6 6 6 6 4 2 2 2 1 3 2 1 1 2 1 2 2 3
Wind_Direction
191 169 179 175 191 179 180 200 213 176 198 178 141 79 62 46 42 23 71 58 7 346 299 253 224 218 223 233 232 222 210 200 184 170 169 172 170 168 168 169 161 148 129
195 181 187 181 190 191 191 197 186 175 191 177 166 98 31 39 34 39 32 107 82 24 358 287 232 228 226 219 213 211 205 196 187 184 185 186 185 181 179 176 169 159 142
197 196 195 184 188 192 192 202 170 184 170 171 182 184 148 12 349 26 31 19 98 93 48 20 214 209 183 168 168 175 179 178 179 186 191 187 183 179 177 182 178 176 184
203 201 197 194 193 192 195 193 205 194 184 199 197 191 200 179 258 12 311 72 56 74 88 62 60 90 139 137 134 140 147 150 152 159 158 157 160 172 183 194 194 196 221
209 204 202 201 193 199 204 204 208 214 209 209 213 208 231 231 255 259 252 53 84 78 97 97 84 63 78 118 130 135 141 144 148 150 154 170 197 211 208 208 209 218 243
217 212 207 210 203 204 212 218 210 223 233 224 227 218 228 233 232 241 269 255 227 109 77 103 130 97 74 68 90 134 148 157 166 170 180 202 235 246 232 220 217 238 254
219 218 222 216 210 214 218 223 220 221 223 221 228 225 220 228 234 206 228 234 209 160 206 154 127 140 123 106 69 77 136 157 168 166 166 175 213 255 245 238 252 266 271
222 223 221 220 219 223 227 229 223 226 221 214 227 238 238 210 212 217 212 228 229 189 224 200 182 182 188 159 97 71 64 91 130 136 125 117 111 107 142 235 280 319 311
221 223 225 219 223 221 223 226 224 224 221 221 229 232 250 257 215 194 208 213 221 221 220 215 214 188 175 198 155 124 77 52 90 114 112 102 94 81 73 73 74 69 74
216 215 220 218 219 221 224 227 227 229 226 223 226 238 250 266 259 224 198 214 214 224 228 206 229 214 197 212 105 90 100 44 76 110 108 105 96 84 70 62 64 71 83
214 206 210 212 221 222 229 229 231 232 229 230 229 229 235 243 251 253 228 195 204 222 228 225 219 224 206 211 204 150 147 190 149 141 120 112 107 94 77 63 52 42 34
208 199 200 206 216 222 228 230 230 232 240 241 237 236 232 232 231 232 235 227 218 209 213 218 225 221 218 217 209 146 188 207 204 178 150 127 112 97 73 41 14 356 338
207 191 188 198 204 211 217 224 230 234 234 241 242 242 242 246 250 240 236 236 230 220 212 214 214 215 213 219 200 173 203 206 208 202 189 165 142 128 92 2 350 345 338
216 182 183 188 190 197 204 213 236 231 239 234 239 242 243 245 242 238 239 235 230 229 228 227 195 210 216 218 201 183 203 194 204 208 206 199 191 189 197 232 309 325 326
201 183 182 186 188 194 209 210 231 229 238 241 242 243 242 242 239 233 233 230 230 233 233 230 216 197 205 224 177 210 224 188 195 205 208 208 209 212 218 228 244 271 294
197 190 195 194 190 190 198 212 229 231 236 239 243 246 242 240 235 230 227 227 228 235 240 228 214 193 175 225 204 239 239 165 193 205 210 212 214 218 226 233 242 253 268
204 202 203 206 194 193 198 203 228 219 233 236 235 243 245 241 236 229 226 224 223 225 237 241 233 246 246 249 216 236 241 219 206 200 208 214 216 219 225 232 239 247 257
209 214 202 209 203 206 210 210 217 221 231 242 243 246 250 245 241 235 228 227 225 223 234 245 237 233 245 255 260 251 243 240 244 189 200 212 218 220 223 228 235 241 248
215 219 218 218 215 218 221 222 223 226 228 234 241 248 250 241 239 231 228 230 229 229 230 242 243 226 234 235 253 256 252 247 248 202 197 212 217 222 224 226 229 234 239
240 237 235 234 232 230 232 232 233 231 232 232 233 240 249 245 247 241 235 234 230 229 228 235 242 237 229 214 234 241 242 233 241 233 218 217 216 218 226 229 230 231 233
276 261 254 251 246 246 244 245 240 237 235 231 230 228 231 261 305 287 280 260 235 228 222 226 235 235 222 200 215 225 242 243 243 237 237 222 217 221 218 225 230 233 231
20 360 302 277 267 274 349 302 268 246 239 234 231 226 201 207 212 226 255 285 293 257 229 221 220 226 230 225 222 220 237 245 250 209 238 243 232 237 235 236 209 211 221
48 44 34 20 19 26 357 301 260 260 243 238 234 222 207 206 213 212 196 210 222 226 248 266 242 234 233 220 222 219 226 241 256 279 258 268 244 248 251 240 199 206 218
49 46 41 39 40 31 11 351 292 251 246 240 239 241 225 214 206 233 219 220 218 203 209 236 258 284 331 351 255 239 220 244 267 238 224 270 276 271 284 270 193 214 228
43 46 44 38 35 28 15 2 331 254 242 236 231 240 252 245 123 233 256 245 231 208 189 242 314 340 18 317 281 236 210 231 248 216 185 251 317 318 304 301 20 214 240
39 46 48 38 32 26 19 11 350 341 303 209 215 215 190 298 106 214 249 250 254 238 202 180 203 215 224 209 211 235 236 240 241 225 174 195 240 304 300 321 331 315 266